Regional Weather Roundup
Issued by NWS

Home | Current Version | Previous Version | Graphics & Text | Print | Product List | Glossary On
Versions: 1 2 3 4 5 6 7 8 9 10 11 12 13 14 15 16 17 18 19 20 21 22 23 24 25 26 27 28 29 30 31 32 33 34 35 36 37 38 39 40 41 42 43 44 45 46 47 48 49 50
000
ASUS43 KDMX 210501
RWRIA

WEATHER ROUNDUP FOR IOWA
NATIONAL WEATHER SERVICE DES MOINES IA
1200 AM CDT FRI JUL 21 2017

NOTE: "FAIR" INDICATES FEW OR NO CLOUDS BELOW 12,000 FEET WITH NO
SIGNIFICANT WEATHER AND/OR OBSTRUCTIONS TO VISIBILITY.

* - THESE STATIONS ARE NOT NWS STATIONS...THUS NOT UNDER NWS
QUALITY CONTROL.  THEY ALSO DO NOT REPORT WEATHER SUCH
AS PRECIPITATION OR FOG.

IAZ001>003-012>014-020>022-031>034-043>046-210600-
   NORTHWEST IOWA

CITY           SKY/WX    TMP DP  RH WIND       PRES   REMARKS
CARROLL *      CLOUDY    72  72 100 NE6       29.93F
CHEROKEE *     CLOUDY    73  71  95 CALM      29.93F
DENISON *      CLOUDY    73  70  88 CALM      29.94R
ORANGE CITY *  CLEAR     75  73  94 E3        29.92F
SHELDON *        N/A     75  73  94 CALM      29.92S
SIOUX CITY     CLEAR     76  68  76 E5        29.89F
SPENCER        CLOUDY    75  73  93 E8        29.95R
STORM LAKE *   MOCLDY    72  68  88 SE5       29.95S
$$

IAZ055>058-069>071-079>083-090>094-210600-
   SOUTHWEST IOWA

CITY           SKY/WX    TMP DP  RH WIND       PRES   REMARKS
ATLANTIC *     CLOUDY    79  72  78 CALM      29.92F HX  82
AUDUBON *      CLOUDY    75  70  83 CALM      29.94S
CLARINDA *       N/A     81  79  94 CALM      29.94R HX  89
COUNCIL BLFS * CLOUDY    82  81  94 SE9       29.92R HX  95
CRESTON *      CLOUDY    79  73  83 CALM      29.96F HX  82
HARLAN  *      CLOUDY    75  72  88 SE5       29.96R
LAMONI         PTCLDY    82  79  90 SE6       29.95R HX  92
RED OAK *      CLOUDY    82  79  89 SE5       29.92R HX  93
SHENANDOAH *   CLEAR     84  75  74 S9        29.92R HX  92
$$

IAZ047>049-059>061-072>074-084-210600-
   CENTRAL IOWA

CITY           SKY/WX    TMP DP  RH WIND       PRES   REMARKS
AMES           CLOUDY    72  72 100 NE6       29.93F
ANKENY *       CLOUDY    73  72  94 E3        29.94R
BOONE *        CLOUDY    72  68  88 E5        29.93R
CHARITON *     CLOUDY    81  73  78 NE7       29.96S HX  85
DES MOINES     LGT RAIN  77  72  84 SE6       29.92R
GRINNELL*      RAIN      70  68  95 SW5       30.01F
KNOXVILLE *    CLOUDY    77  72  83 SE9       29.94F
MARSHALLTOWN   HVY RAIN  70  70 100 E14       29.96F FOG
NEWTON *       CLOUDY    72  68  88 NE12      29.95F
PELLA *        LGT RAIN  73  70  90 SE6       29.96F
$$

IAZ004>006-015-016-023>025-035-036-210600-
   NORTH CENTRAL IOWA

CITY           SKY/WX    TMP DP  RH WIND       PRES   REMARKS
ALGONA *       CLOUDY    75  75 100 CALM      29.96F
ESTHERVILLE    CLOUDY    71  71 100 E6        29.96R
FORT DODGE *   CLOUDY    73  68  83 E7        29.96S
MASON CITY     CLOUDY    72  70  93 E3        29.98F
FOREST CITY *    N/A     73  72  94 E3        29.97F
WEBSTER CITY * CLOUDY    72  70  94 SE3       29.94S
IOWA FALLS *     N/A     73  70  92 SE3       29.98S
$$

IAZ007>011-017>019-026>030-037>042-050>054-066-210600-
   NORTHEAST IOWA

CITY           SKY/WX    TMP DP  RH WIND       PRES   REMARKS
CEDAR RAPIDS   LGT RAIN  73  73 100 NE14      29.96F FOG
CHARLES CITY * CLOUDY    73  73 100 E3        29.99S
CLINTON *      LGT RAIN  72  70  93 NE9       29.96F
DECORAH *      CLOUDY    72  70  94 E7        29.98F
DUBUQUE        CLOUDY    75  72  90 S7        30.01R
MONTICELLO *   CLOUDY    77  70  78 S10       30.01R
OELWEIN *      CLOUDY    75  72  88 E7        29.99R
WATERLOO       CLOUDY    78  70  76 E6        29.95R HX  80
$$

IAZ064-065-067-068-078-210600-
   EAST CENTRAL IOWA

CITY           SKY/WX    TMP DP  RH WIND       PRES   REMARKS
DAVENPORT      LGT RAIN  71  67  87 NW6       29.99R
IOWA CITY      CLOUDY    75  72  90 E6        29.95F
MUSCATINE *    CLOUDY    73  70  88 CALM      29.96F
QUAD CITIES    CLOUDY    73  70  90 W5        29.96R
$$

IAZ062-063-075>077-085>089-095>099-210600-
   SOUTHEAST IOWA

CITY           SKY/WX    TMP DP  RH WIND       PRES   REMARKS
BURLINGTON     CLOUDY    80  72  76 CALM      29.95S HX  84
FAIRFIELD *    CLOUDY    75  70  83 NE6       29.96R
FORT MADISON * CLOUDY    79  70  73 CALM      29.96R HX  81
KEOKUK *       MOCLDY    81  73  78 CALM      29.95R HX  85
OSKALOOSA *      N/A     78  70  76 N13G21    29.99R HX  80
OTTUMWA        CLOUDY    82  72  71 CALM      29.95R HX  87
$$

ABBREVIATIONS USED IN REMARKS
   TC - TEMPERATURES IN CELSIUS
  WCI - WIND CHILL INDEX
   HX - HEAT INDEX
  VSB - VISIBILITY
$$




USA.gov is the U.S. government's official web portal to all federal, state and local government web resources and services.